| time (UTC) | temp F | wind direction | speed MPH | gust MPH | rain 1hr in | rain 24hr in | rain mn in | humidity % | barometer mb |
| 20260903213007 | 62 | 241 | 9.0 | 10.0 | 0.00 | 0.00 | 0.00 | 82 | 1021.2 |
| 20260903212508 | 62 | 242 | 8.0 | 9.0 | 0.00 | 0.00 | 0.00 | 83 | 1021.4 |
| 20260903212007 | 61 | 230 | 6.0 | 7.0 | 0.00 | 0.00 | 0.00 | 83 | 1021.1 |
| 20260903211508 | 61 | 224 | 8.0 | 10.0 | 0.00 | 0.00 | 0.00 | 83 | 1021.3 |
| 20260903211007 | 61 | 248 | 8.0 | 10.0 | 0.00 | 0.00 | 0.00 | 83 | 1021.5 |
| 20260903210507 | 61 | 251 | 12.0 | 12.0 | 0.00 | 0.00 | 0.00 | 83 | 1021.6 |
| 20260903210008 | 61 | 263 | 8.0 | 9.0 | 0.00 | 0.00 | 0.00 | 83 | 1021.3 |
| 20260903205507 | 61 | 223 | 6.0 | 8.0 | 0.00 | 0.00 | 0.00 | 83 | 1021.4 |
| 20260903205008 | 61 | 223 | 6.0 | 8.0 | 0.00 | 0.00 | 0.00 | 83 | 1021.7 |
| 20260903204507 | 61 | 237 | 11.0 | 12.0 | 0.00 | 0.00 | 0.00 | 83 | 1021.7 |
| 20260903204008 | 61 | 249 | 7.0 | 11.0 | 0.00 | 0.00 | 0.00 | 83 | 1021.4 |
| 20260903203508 | 61 | 243 | 12.0 | 13.0 | 0.00 | 0.00 | 0.00 | 83 | 1021.6 |
| 20260903203009 | 61 | 223 | 7.0 | 9.0 | 0.00 | 0.00 | 0.00 | 83 | 1021.4 |
| 20260903202507 | 61 | 248 | 14.0 | 15.0 | 0.00 | 0.00 | 0.00 | 83 | 1021.5 |
| 20260903202007 | 62 | 234 | 8.0 | 15.0 | 0.00 | 0.00 | 0.00 | 82 | 1021.5 |
| 20260903201507 | 61 | 245 | 9.0 | 12.0 | 0.00 | 0.00 | 0.00 | 82 | 1021.5 |
| 20260903201007 | 61 | 229 | 8.0 | 12.0 | 0.00 | 0.00 | 0.00 | 82 | 1021.5 |
| 20260903200508 | 62 | 241 | 10.0 | 13.0 | 0.00 | 0.00 | 0.00 | 82 | 1021.4 |
| 20260903200007 | 62 | 237 | 8.0 | 14.0 | 0.00 | 0.00 | 0.00 | 82 | 1021.7 |
| 20260903195508 | 62 | 233 | 14.0 | 16.0 | 0.00 | 0.00 | 0.00 | 81 | 1021.5 |
| 20260903195008 | 62 | 221 | 13.0 | 15.0 | 0.00 | 0.00 | 0.00 | 81 | 1021.5 |
| 20260903194507 | 62 | 222 | 9.0 | 11.0 | 0.00 | 0.00 | 0.00 | 81 | 1021.6 |
| 20260903194007 | 62 | 222 | 9.0 | 12.0 | 0.00 | 0.00 | 0.00 | 80 | 1021.4 |
| 20260903193507 | 62 | 238 | 12.0 | 12.0 | 0.00 | 0.00 | 0.00 | 80 | 1021.6 |
| 20260903193008 | 62 | 241 | 11.0 | 14.0 | 0.00 | 0.00 | 0.00 | 80 | 1021.6 |
| 20260903192507 | 62 | 241 | 11.0 | 14.0 | 0.00 | 0.00 | 0.00 | 80 | 1021.6 |
| 20260903192007 | 62 | 249 | 9.0 | 14.0 | 0.00 | 0.00 | 0.00 | 79 | 1021.5 |
| 20260903191507 | 62 | 222 | 11.0 | 15.0 | 0.00 | 0.00 | 0.00 | 79 | 1021.8 |
| 20260903191007 | 62 | 250 | 14.0 | 15.0 | 0.00 | 0.00 | 0.00 | 79 | 1021.9 |
| 20260903190508 | 62 | 238 | 10.0 | 10.0 | 0.00 | 0.00 | 0.00 | 78 | 1021.8 |
| 20260903190007 | 62 | 229 | 10.0 | 11.0 | 0.00 | 0.00 | 0.00 | 78 | 1022.2 |
| 20260903185508 | 62 | 265 | 10.0 | 11.0 | 0.00 | 0.00 | 0.00 | 77 | 1022.0 |
| 20260903185009 | 63 | 237 | 11.0 | 12.0 | 0.00 | 0.00 | 0.00 | 77 | 1022.0 |
| 20260903184507 | 63 | 267 | 13.0 | 15.0 | 0.00 | 0.00 | 0.00 | 75 | 1022.0 |
| 20260903184007 | 63 | 245 | 9.0 | 10.0 | 0.00 | 0.00 | 0.00 | 75 | 1021.8 |
| 20260903183508 | 63 | 264 | 16.0 | 18.0 | 0.00 | 0.00 | 0.00 | 75 | 1022.0 |
| 20260903183008 | 64 | 246 | 10.0 | 11.0 | 0.00 | 0.00 | 0.00 | 73 | 1022.0 |
| 20260903182507 | 64 | 259 | 12.0 | 15.0 | 0.00 | 0.00 | 0.00 | 72 | 1022.3 |
| 20260903182008 | 64 | 259 | 12.0 | 15.0 | 0.00 | 0.00 | 0.00 | 72 | 1021.9 |
| 20260903181508 | 64 | 268 | 12.0 | 12.0 | 0.00 | 0.00 | 0.00 | 71 | 1021.8 |
| 20260903181006 | 64 | 275 | 19.0 | 20.0 | 0.00 | 0.00 | 0.00 | 71 | 1021.9 |
| 20260903180506 | 64 | 251 | 9.0 | 11.0 | 0.00 | 0.00 | 0.00 | 70 | 1021.7 |
| 20260903180007 | 64 | 260 | 12.0 | 19.0 | 0.00 | 0.00 | 0.00 | 70 | 1022.0 |
| 20260903175508 | 65 | 277 | 20.0 | 22.0 | 0.00 | 0.00 | 0.00 | 69 | 1021.7 |
| 20260903175007 | 65 | 269 | 17.0 | 19.0 | 0.00 | 0.00 | 0.00 | 69 | 1021.9 |
| 20260903174507 | 65 | 263 | 12.0 | 17.0 | 0.00 | 0.00 | 0.00 | 68 | 1022.0 |
| 20260903174006 | 65 | 289 | 19.0 | 21.0 | 0.00 | 0.00 | 0.00 | 67 | 1021.6 |
| 20260903173508 | 65 | 289 | 19.0 | 21.0 | 0.00 | 0.00 | 0.00 | 67 | 1021.7 |
| 20260903173008 | 66 | 280 | 16.0 | 16.0 | 0.00 | 0.00 | 0.00 | 67 | 1021.6 |
| 20260903172508 | 66 | 277 | 14.0 | 21.0 | 0.00 | 0.00 | 0.00 | 66 | 1021.5 |
| 20260903172006 | 66 | 274 | 13.0 | 25.0 | 0.00 | 0.00 | 0.00 | 66 | 1021.7 |
| 20260903171508 | 66 | 284 | 17.0 | 21.0 | 0.00 | 0.00 | 0.00 | 65 | 1021.5 |
| 20260903171008 | 66 | 287 | 16.0 | 20.0 | 0.00 | 0.00 | 0.00 | 65 | 1021.7 |
| 20260903170507 | 66 | 293 | 18.0 | 21.0 | 0.00 | 0.00 | 0.00 | 64 | 1021.6 |
| 20260903170007 | 66 | 272 | 12.0 | 20.0 | 0.00 | 0.00 | 0.00 | 64 | 1021.5 |
| 20260903165508 | 67 | 293 | 13.0 | 21.0 | 0.00 | 0.00 | 0.00 | 63 | 1021.6 |
| 20260903165007 | 67 | 289 | 13.0 | 15.0 | 0.00 | 0.00 | 0.00 | 62 | 1021.6 |
| 20260903164507 | 67 | 275 | 14.0 | 16.0 | 0.00 | 0.00 | 0.00 | 61 | 1021.4 |
| 20260903164007 | 67 | 276 | 10.0 | 15.0 | 0.00 | 0.00 | 0.00 | 61 | 1021.4 |
| 20260903163508 | 68 | 282 | 12.0 | 17.0 | 0.00 | 0.00 | 0.00 | 61 | 1021.4 |
| 20260903163008 | 68 | 297 | 12.0 | 20.0 | 0.00 | 0.00 | 0.00 | 59 | 1021.6 |
| 20260903162507 | 68 | 269 | 21.0 | 24.0 | 0.00 | 0.00 | 0.00 | 59 | 1021.6 |
| 20260903162008 | 68 | 266 | 12.0 | 17.0 | 0.00 | 0.00 | 0.00 | 58 | 1021.2 |
| 20260903161508 | 69 | 292 | 19.0 | 25.0 | 0.00 | 0.00 | 0.00 | 57 | 1021.0 |
| 20260903161006 | 69 | 280 | 24.0 | 24.0 | 0.00 | 0.00 | 0.00 | 55 | 1021.3 |
| 20260903160507 | 69 | 285 | 12.0 | 20.0 | 0.00 | 0.00 | 0.00 | 54 | 1021.3 |
| 20260903160008 | 69 | 287 | 14.0 | 18.0 | 0.00 | 0.00 | 0.00 | 53 | 1021.2 |
| 20260903155507 | 70 | 276 | 12.0 | 23.0 | 0.00 | 0.00 | 0.00 | 53 | 1021.4 |
| 20260903155008 | 70 | 277 | 17.0 | 20.0 | 0.00 | 0.00 | 0.00 | 53 | 1021.4 |
| 20260903154508 | 70 | 241 | 12.0 | 21.0 | 0.00 | 0.00 | 0.00 | 53 | 1021.1 |
| 20260903154007 | 70 | 281 | 11.0 | 15.0 | 0.00 | 0.00 | 0.00 | 53 | 1021.4 |
| 20260903153508 | 70 | 272 | 17.0 | 18.0 | 0.00 | 0.00 | 0.00 | 53 | 1021.2 |
| 20260903153008 | 70 | 278 | 12.0 | 18.0 | 0.00 | 0.00 | 0.00 | 53 | 1021.3 |
| 20260903152507 | 70 | 236 | 10.0 | 12.0 | 0.00 | 0.00 | 0.00 | 53 | 1021.1 |
| 20260903152008 | 70 | 241 | 8.0 | 9.0 | 0.00 | 0.00 | 0.00 | 53 | 1021.3 |
| 20260903151507 | 70 | 223 | 3.0 | 9.0 | 0.00 | 0.00 | 0.00 | 52 | 1021.2 |
| 20260903151006 | 70 | 264 | 7.0 | 9.0 | 0.00 | 0.00 | 0.00 | 52 | 1021.3 |
| 20260903150508 | 70 | 274 | 10.0 | 12.0 | 0.00 | 0.00 | 0.00 | 51 | 1021.4 |
| 20260903150007 | 70 | 260 | 9.0 | 12.0 | 0.00 | 0.00 | 0.00 | 51 | 1021.5 |
| 20260903145507 | 70 | 257 | 9.0 | 9.0 | 0.00 | 0.00 | 0.00 | 51 | 1021.3 |
| 20260903145007 | 70 | 264 | 10.0 | 11.0 | 0.00 | 0.00 | 0.00 | 52 | 1021.3 |
| 20260903144507 | 70 | 260 | 7.0 | 11.0 | 0.00 | 0.00 | 0.00 | 51 | 1021.2 |
| 20260903144007 | 70 | 266 | 12.0 | 15.0 | 0.00 | 0.00 | 0.00 | 50 | 1021.4 |
| 20260903143507 | 70 | 287 | 11.0 | 12.0 | 0.00 | 0.00 | 0.00 | 50 | 1021.2 |
| 20260903143007 | 70 | 280 | 13.0 | 14.0 | 0.00 | 0.00 | 0.00 | 50 | 1021.4 |
| 20260903142507 | 70 | 261 | 6.0 | 9.0 | 0.00 | 0.00 | 0.00 | 50 | 1021.3 |
| 20260903142008 | 70 | 287 | 12.0 | 13.0 | 0.00 | 0.00 | 0.00 | 50 | 1021.5 |
| 20260903141507 | 70 | 271 | 11.0 | 11.0 | 0.00 | 0.00 | 0.00 | 49 | 1021.5 |
| 20260903141007 | 70 | 260 | 8.0 | 10.0 | 0.00 | 0.00 | 0.00 | 49 | 1021.4 |
| 20260903140507 | 71 | 253 | 7.0 | 9.0 | 0.00 | 0.00 | 0.00 | 50 | 1021.6 |
| 20260903140008 | 70 | 266 | 10.0 | 12.0 | 0.00 | 0.00 | 0.00 | 49 | 1021.6 |
| 20260903135508 | 70 | 265 | 14.0 | 16.0 | 0.00 | 0.00 | 0.00 | 49 | 1021.8 |
| 20260903135007 | 70 | 273 | 10.0 | 14.0 | 0.00 | 0.00 | 0.00 | 50 | 1021.9 |
| 20260903134507 | 70 | 284 | 8.0 | 9.0 | 0.00 | 0.00 | 0.00 | 50 | 1021.6 |
| 20260903134008 | 70 | 295 | 7.0 | 11.0 | 0.00 | 0.00 | 0.00 | 49 | 1021.7 |
| 20260903133507 | 70 | 287 | 9.0 | 12.0 | 0.00 | 0.00 | 0.00 | 49 | 1022.0 |
| 20260903133009 | 70 | 278 | 8.0 | 12.0 | 0.00 | 0.00 | 0.00 | 49 | 1021.9 |
| 20260903132508 | 70 | 277 | 9.0 | 12.0 | 0.00 | 0.00 | 0.00 | 49 | 1021.9 |
| 20260903132008 | 70 | 272 | 10.0 | 12.0 | 0.00 | 0.00 | 0.00 | 49 | 1021.7 |
| 20260903131508 | 70 | 259 | 8.0 | 13.0 | 0.00 | 0.00 | 0.00 | 49 | 1021.6 |
| 20260903131006 | 70 | 276 | 11.0 | 11.0 | 0.00 | 0.00 | 0.00 | 49 | 1021.7 |
| 20260903130508 | 70 | 266 | 16.0 | 20.0 | 0.00 | 0.00 | 0.00 | 48 | 1021.8 |
| 20260903130007 | 70 | 275 | 9.0 | 11.0 | 0.00 | 0.00 | 0.00 | 49 | 1021.9 |
| 20260903125507 | 70 | 286 | 15.0 | 17.0 | 0.00 | 0.00 | 0.00 | 49 | 1021.9 |
| 20260903125007 | 70 | 258 | 10.0 | 11.0 | 0.00 | 0.00 | 0.00 | 50 | 1021.5 |
| 20260903124508 | 70 | 284 | 8.0 | 10.0 | 0.00 | 0.00 | 0.00 | 50 | 1021.7 |
| 20260903124008 | 70 | 278 | 12.0 | 13.0 | 0.00 | 0.00 | 0.00 | 49 | 1021.7 |
| 20260903123507 | 71 | 279 | 7.0 | 8.0 | 0.00 | 0.00 | 0.00 | 50 | 1021.8 |
| 20260903123007 | 70 | 275 | 12.0 | 13.0 | 0.00 | 0.00 | 0.00 | 48 | 1021.5 |
| 20260903122508 | 70 | 282 | 8.0 | 12.0 | 0.00 | 0.00 | 0.00 | 49 | 1021.9 |
| 20260903122006 | 69 | 284 | 16.0 | 17.0 | 0.00 | 0.00 | 0.00 | 49 | 1021.7 |
| 20260903121507 | 69 | 276 | 15.0 | 17.0 | 0.00 | 0.00 | 0.00 | 50 | 1021.8 |
| 20260903121006 | 69 | 290 | 13.0 | 17.0 | 0.00 | 0.00 | 0.00 | 50 | 1021.7 |
| 20260903120508 | 69 | 293 | 6.0 | 8.0 | 0.00 | 0.00 | 0.00 | 52 | 1021.7 |
| 20260903115507 | 69 | 286 | 11.0 | 13.0 | 0.00 | 0.00 | 0.00 | 51 | 1021.8 |
| 20260903115008 | 69 | 275 | 12.0 | 16.0 | 0.00 | 0.00 | 0.00 | 50 | 1021.8 |
| 20260903114508 | 69 | 265 | 17.0 | 18.0 | 0.00 | 0.00 | 0.00 | 50 | 1022.0 |
| 20260903114007 | 69 | 266 | 14.0 | 16.0 | 0.00 | 0.00 | 0.00 | 51 | 1022.1 |
| 20260903113507 | 69 | 271 | 21.0 | 25.0 | 0.00 | 0.00 | 0.00 | 49 | 1021.9 |
| 20260903112507 | 69 | 283 | 19.0 | 21.0 | 0.00 | 0.00 | 0.00 | 51 | 1022.1 |
| 20260903112007 | 69 | 245 | 16.0 | 18.0 | 0.00 | 0.00 | 0.00 | 50 | 1022.2 |
| 20260903111508 | 69 | 266 | 9.0 | 12.0 | 0.00 | 0.00 | 0.00 | 52 | 1022.3 |
| 20260903111007 | 69 | 249 | 4.0 | 6.0 | 0.00 | 0.00 | 0.00 | 53 | 1022.4 |
| 20260903110507 | 69 | 256 | 14.0 | 19.0 | 0.00 | 0.00 | 0.00 | 50 | 1022.6 |
| 20260903110008 | 68 | 274 | 13.0 | 14.0 | 0.00 | 0.00 | 0.00 | 51 | 1022.4 |
| 20260903105507 | 68 | 264 | 8.0 | 12.0 | 0.00 | 0.00 | 0.00 | 52 | 1022.5 |
| 20260903105007 | 68 | 285 | 9.0 | 16.0 | 0.00 | 0.00 | 0.00 | 54 | 1022.6 |
| 20260903104508 | 68 | 286 | 8.0 | 13.0 | 0.00 | 0.00 | 0.00 | 54 | 1022.7 |
| 20260903104007 | 68 | 302 | 8.0 | 9.0 | 0.00 | 0.00 | 0.00 | 56 | 1022.7 |
| 20260903103507 | 68 | 228 | 7.0 | 12.0 | 0.00 | 0.00 | 0.00 | 55 | 1022.8 |
| 20260903103008 | 68 | 249 | 7.0 | 8.0 | 0.00 | 0.00 | 0.00 | 55 | 1022.7 |
| 20260903102508 | 68 | 275 | 9.0 | 9.0 | 0.00 | 0.00 | 0.00 | 55 | 1022.8 |
| 20260903102007 | 68 | 294 | 11.0 | 12.0 | 0.00 | 0.00 | 0.00 | 55 | 1022.8 |
| 20260903101508 | 67 | 300 | 18.0 | 19.0 | 0.00 | 0.00 | 0.00 | 54 | 1022.7 |
| 20260903101007 | 67 | 295 | 18.0 | 24.0 | 0.00 | 0.00 | 0.00 | 54 | 1022.8 |
| 20260903100507 | 67 | 309 | 9.0 | 19.0 | 0.00 | 0.00 | 0.00 | 54 | 1022.8 |
| 20260903100008 | 67 | 289 | 13.0 | 16.0 | 0.00 | 0.00 | 0.00 | 54 | 1022.9 |
| 20260903095508 | 67 | 277 | 15.0 | 21.0 | 0.00 | 0.00 | 0.00 | 54 | 1022.9 |
| 20260903095009 | 67 | 286 | 12.0 | 18.0 | 0.00 | 0.00 | 0.00 | 54 | 1023.2 |
| 20260903094508 | 66 | 254 | 14.0 | 17.0 | 0.00 | 0.00 | 0.00 | 55 | 1022.9 |
| 20260903094007 | 67 | 232 | 11.0 | 15.0 | 0.00 | 0.00 | 0.00 | 56 | 1023.1 |
| 20260903093507 | 66 | 293 | 8.0 | 10.0 | 0.00 | 0.00 | 0.00 | 58 | 1022.8 |
| 20260903093008 | 66 | 288 | 15.0 | 18.0 | 0.00 | 0.00 | 0.00 | 60 | 1022.8 |
| 20260903092507 | 66 | 287 | 4.0 | 6.0 | 0.00 | 0.00 | 0.00 | 61 | 1023.0 |
| 20260903092007 | 65 | 269 | 7.0 | 11.0 | 0.00 | 0.00 | 0.00 | 61 | 1022.7 |
| 20260903091508 | 65 | 266 | 12.0 | 12.0 | 0.00 | 0.00 | 0.00 | 60 | 1022.8 |
| 20260903091008 | 65 | 262 | 10.0 | 11.0 | 0.00 | 0.00 | 0.00 | 59 | 1023.0 |
| 20260903090507 | 65 | 293 | 11.0 | 13.0 | 0.00 | 0.00 | 0.00 | 61 | 1022.8 |
| 20260903090008 | 66 | 260 | 14.0 | 18.0 | 0.00 | 0.00 | 0.00 | 60 | 1022.7 |
| 20260903085507 | 66 | 257 | 5.0 | 10.0 | 0.00 | 0.00 | 0.00 | 64 | 1023.0 |
| 20260903085008 | 65 | 261 | 10.0 | 11.0 | 0.00 | 0.00 | 0.00 | 64 | 1022.9 |
| 20260903084508 | 65 | 268 | 5.0 | 6.0 | 0.00 | 0.00 | 0.00 | 67 | 1023.0 |
| 20260903084008 | 65 | 273 | 6.0 | 7.0 | 0.00 | 0.00 | 0.00 | 65 | 1022.9 |
| 20260903083508 | 65 | 252 | 6.0 | 6.0 | 0.00 | 0.00 | 0.00 | 67 | 1023.0 |
| 20260903083008 | 64 | 281 | 10.0 | 10.0 | 0.00 | 0.00 | 0.00 | 64 | 1023.2 |
| 20260903082508 | 64 | 264 | 16.0 | 16.0 | 0.00 | 0.00 | 0.00 | 64 | 1022.9 |
| 20260903082008 | 64 | 278 | 3.0 | 6.0 | 0.00 | 0.00 | 0.00 | 69 | 1022.8 |
| 20260903081507 | 64 | 243 | 8.0 | 11.0 | 0.00 | 0.00 | 0.00 | 68 | 1023.0 |
| 20260903081008 | 64 | 300 | 4.0 | 6.0 | 0.00 | 0.00 | 0.00 | 72 | 1023.0 |
| 20260903080509 | 63 | 271 | 10.0 | 12.0 | 0.00 | 0.00 | 0.00 | 74 | 1022.8 |
| 20260903080008 | 63 | 271 | 8.0 | 10.0 | 0.00 | 0.00 | 0.00 | 77 | 1022.9 |
| 20260903075507 | 64 | 236 | 4.0 | 6.0 | 0.00 | 0.00 | 0.00 | 77 | 1023.1 |
| 20260903075007 | 63 | 223 | 5.0 | 6.0 | 0.00 | 0.00 | 0.00 | 78 | 1023.0 |
| 20260903074508 | 62 | 251 | 6.0 | 6.0 | 0.00 | 0.00 | 0.00 | 78 | 1022.8 |
| 20260903074007 | 63 | 244 | 4.0 | 6.0 | 0.00 | 0.00 | 0.00 | 78 | 1023.0 |
| 20260903073507 | 62 | 221 | 4.0 | 5.0 | 0.00 | 0.00 | 0.00 | 80 | 1023.1 |
| 20260903073009 | 62 | 285 | 5.0 | 6.0 | 0.00 | 0.00 | 0.00 | 80 | 1023.1 |
| 20260903072508 | 61 | 252 | 8.0 | 10.0 | 0.00 | 0.00 | 0.00 | 80 | 1023.2 |
| 20260903072008 | 62 | 264 | 6.0 | 6.0 | 0.00 | 0.00 | 0.00 | 80 | 1023.0 |
| 20260903071508 | 61 | 266 | 8.0 | 8.0 | 0.00 | 0.00 | 0.00 | 80 | 1022.9 |
| 20260903071008 | 61 | 265 | 8.0 | 8.0 | 0.00 | 0.00 | 0.00 | 80 | 1023.0 |
| 20260903070508 | 60 | 260 | 10.0 | 10.0 | 0.00 | 0.00 | 0.00 | 81 | 1022.8 |
| 20260903070008 | 60 | 272 | 6.0 | 8.0 | 0.00 | 0.00 | 0.00 | 81 | 1022.8 |
| 20260903065507 | 60 | 290 | 5.0 | 5.0 | 0.00 | 0.00 | 0.00 | 82 | 1023.0 |
| 20260903065009 | 60 | 276 | 5.0 | 7.0 | 0.00 | 0.00 | 0.00 | 81 | 1022.9 |
| 20260903064508 | 60 | 287 | 5.0 | 8.0 | 0.00 | 0.00 | 0.00 | 81 | 1022.8 |
| 20260903064007 | 60 | 278 | 3.0 | 7.0 | 0.00 | 0.00 | 0.00 | 81 | 1022.7 |
| 20260903063507 | 60 | 249 | 8.0 | 12.0 | 0.00 | 0.00 | 0.00 | 81 | 1022.5 |
| 20260903063008 | 60 | 272 | 8.0 | 8.0 | 0.00 | 0.00 | 0.00 | 82 | 1022.4 |
| 20260903062508 | 59 | 267 | 4.0 | 5.0 | 0.00 | 0.00 | 0.00 | 84 | 1022.5 |
| 20260903062007 | 59 | 269 | 7.0 | 8.0 | 0.00 | 0.00 | 0.00 | 84 | 1022.5 |
| 20260903061508 | 59 | 259 | 8.0 | 10.0 | 0.00 | 0.00 | 0.00 | 84 | 1022.6 |
| 20260903061007 | 59 | 254 | 6.0 | 8.0 | 0.00 | 0.00 | 0.00 | 84 | 1022.4 |
| 20260903060508 | 58 | 261 | 8.0 | 11.0 | 0.00 | 0.00 | 0.00 | 84 | 1022.6 |
| 20260903060007 | 58 | 251 | 8.0 | 12.0 | 0.00 | 0.00 | 0.00 | 84 | 1022.4 |
| 20260903055508 | 58 | 245 | 12.0 | 13.0 | 0.00 | 0.00 | 0.00 | 84 | 1022.4 |
| 20260903055009 | 58 | 254 | 14.0 | 14.0 | 0.00 | 0.00 | 0.00 | 84 | 1022.3 |
| 20260903054507 | 58 | 253 | 11.0 | 12.0 | 0.00 | 0.00 | 0.00 | 84 | 1022.1 |
| 20260903054008 | 58 | 249 | 13.0 | 14.0 | 0.00 | 0.00 | 0.00 | 84 | 1022.3 |
| 20260903053508 | 58 | 262 | 9.0 | 11.0 | 0.00 | 0.00 | 0.00 | 84 | 1022.3 |
| 20260903053007 | 58 | 255 | 10.0 | 14.0 | 0.00 | 0.00 | 0.00 | 83 | 1022.4 |
| 20260903052507 | 59 | 262 | 11.0 | 14.0 | 0.00 | 0.00 | 0.00 | 82 | 1022.0 |
| 20260903052007 | 58 | 252 | 12.0 | 15.0 | 0.00 | 0.00 | 0.00 | 82 | 1022.2 |
| 20260903051508 | 58 | 257 | 11.0 | 14.0 | 0.00 | 0.00 | 0.00 | 82 | 1022.2 |
| 20260903051006 | 58 | 255 | 15.0 | 15.0 | 0.00 | 0.00 | 0.00 | 82 | 1022.1 |
| 20260903050507 | 58 | 253 | 13.0 | 15.0 | 0.00 | 0.00 | 0.00 | 83 | 1022.3 |
| 20260903050008 | 58 | 255 | 12.0 | 14.0 | 0.00 | 0.00 | 0.00 | 84 | 1022.3 |
| 20260903045507 | 58 | 252 | 12.0 | 12.0 | 0.00 | 0.00 | 0.00 | 84 | 1022.3 |
| 20260903045008 | 59 | 253 | 10.0 | 12.0 | 0.00 | 0.00 | 0.00 | 82 | 1022.3 |
| 20260903044507 | 58 | 253 | 11.0 | 12.0 | 0.00 | 0.00 | 0.00 | 83 | 1021.9 |
| 20260903044007 | 59 | 262 | 9.0 | 10.0 | 0.00 | 0.00 | 0.00 | 80 | 1022.3 |
| 20260903043507 | 59 | 256 | 10.0 | 11.0 | 0.00 | 0.00 | 0.00 | 82 | 1022.2 |
| 20260903043007 | 59 | 269 | 11.0 | 12.0 | 0.00 | 0.00 | 0.00 | 80 | 1022.2 |
| 20260903042508 | 59 | 265 | 10.0 | 11.0 | 0.00 | 0.00 | 0.00 | 81 | 1022.1 |
| 20260903042008 | 59 | 265 | 10.0 | 11.0 | 0.00 | 0.00 | 0.00 | 81 | 1022.2 |
| 20260903041508 | 59 | 266 | 10.0 | 11.0 | 0.00 | 0.00 | 0.00 | 80 | 1022.1 |
| 20260903041007 | 59 | 269 | 11.0 | 12.0 | 0.00 | 0.00 | 0.00 | 78 | 1022.0 |
| 20260903040507 | 60 | 273 | 11.0 | 11.0 | 0.00 | 0.00 | 0.00 | 77 | 1022.0 |
| 20260903040009 | 60 | 266 | 9.0 | 11.0 | 0.00 | 0.00 | 0.00 | 77 | 1022.0 |
| 20260903035508 | 60 | 272 | 10.0 | 11.0 | 0.00 | 0.00 | 0.00 | 76 | 1022.1 |
| 20260903035007 | 60 | 274 | 10.0 | 10.0 | 0.00 | 0.00 | 0.00 | 77 | 1022.0 |
| 20260903034507 | 60 | 271 | 11.0 | 12.0 | 0.00 | 0.00 | 0.00 | 76 | 1021.9 |
| 20260903034009 | 60 | 274 | 9.0 | 12.0 | 0.00 | 0.00 | 0.00 | 76 | 1022.3 |
| 20260903033507 | 59 | 267 | 11.0 | 11.0 | 0.00 | 0.00 | 0.00 | 79 | 1022.0 |
| 20260903033007 | 59 | 259 | 10.0 | 11.0 | 0.00 | 0.00 | 0.00 | 82 | 1022.1 |
| 20260903032508 | 59 | 264 | 9.0 | 10.0 | 0.00 | 0.00 | 0.00 | 82 | 1022.0 |
| 20260903032007 | 58 | 257 | 11.0 | 11.0 | 0.00 | 0.00 | 0.00 | 82 | 1022.1 |
| 20260903031508 | 59 | 257 | 11.0 | 12.0 | 0.00 | 0.00 | 0.00 | 80 | 1022.0 |
| 20260903031007 | 59 | 256 | 10.0 | 11.0 | 0.00 | 0.00 | 0.00 | 80 | 1022.2 |
| 20260903030507 | 59 | 252 | 9.0 | 10.0 | 0.00 | 0.00 | 0.00 | 81 | 1022.2 |
| 20260903030008 | 59 | 257 | 12.0 | 13.0 | 0.00 | 0.00 | 0.00 | 79 | 1022.1 |
| 20260903025507 | 59 | 258 | 10.0 | 11.0 | 0.00 | 0.00 | 0.00 | 80 | 1022.3 |
| 20260903025008 | 59 | 252 | 10.0 | 11.0 | 0.00 | 0.00 | 0.00 | 81 | 1022.2 |
| 20260903024507 | 59 | 258 | 10.0 | 12.0 | 0.00 | 0.00 | 0.00 | 81 | 1022.0 |
| 20260903024006 | 59 | 262 | 9.0 | 11.0 | 0.00 | 0.00 | 0.00 | 80 | 1022.0 |
| 20260903023507 | 59 | 252 | 10.0 | 11.0 | 0.00 | 0.00 | 0.00 | 81 | 1022.1 |
| 20260903023007 | 59 | 249 | 11.0 | 11.0 | 0.00 | 0.00 | 0.00 | 80 | 1021.9 |
| 20260903022508 | 59 | 239 | 11.0 | 12.0 | 0.00 | 0.00 | 0.00 | 78 | 1022.0 |
| 20260903022007 | 59 | 247 | 10.0 | 12.0 | 0.00 | 0.00 | 0.00 | 79 | 1022.0 |
| 20260903021508 | 59 | 251 | 12.0 | 12.0 | 0.00 | 0.00 | 0.00 | 79 | 1022.0 |
| 20260903021008 | 59 | 252 | 12.0 | 12.0 | 0.00 | 0.00 | 0.00 | 80 | 1021.8 |
| 20260903020508 | 59 | 257 | 11.0 | 12.0 | 0.00 | 0.00 | 0.00 | 79 | 1021.9 |
| 20260903020008 | 59 | 256 | 11.0 | 13.0 | 0.00 | 0.00 | 0.00 | 79 | 1022.0 |
| 20260903015507 | 60 | 254 | 12.0 | 14.0 | 0.00 | 0.00 | 0.00 | 78 | 1022.0 |
| 20260903015008 | 60 | 256 | 13.0 | 14.0 | 0.00 | 0.00 | 0.00 | 79 | 1022.0 |
| 20260903014507 | 60 | 253 | 12.0 | 13.0 | 0.00 | 0.00 | 0.00 | 78 | 1022.2 |
| 20260903014007 | 59 | 253 | 12.0 | 14.0 | 0.00 | 0.00 | 0.00 | 81 | 1022.0 |
| 20260903013508 | 59 | 254 | 11.0 | 12.0 | 0.00 | 0.00 | 0.00 | 80 | 1022.0 |
| 20260903013007 | 59 | 256 | 10.0 | 10.0 | 0.00 | 0.00 | 0.00 | 79 | 1022.0 |
| 20260903012507 | 60 | 253 | 10.0 | 12.0 | 0.00 | 0.00 | 0.00 | 76 | 1022.1 |
| 20260903012007 | 60 | 257 | 11.0 | 12.0 | 0.00 | 0.00 | 0.00 | 79 | 1022.3 |
| 20260903011507 | 59 | 252 | 10.0 | 11.0 | 0.00 | 0.00 | 0.00 | 83 | 1022.4 |
| 20260903011007 | 60 | 247 | 10.0 | 11.0 | 0.00 | 0.00 | 0.00 | 81 | 1022.1 |
| 20260903010507 | 60 | 254 | 11.0 | 12.0 | 0.00 | 0.00 | 0.00 | 79 | 1022.0 |
| 20260903010007 | 59 | 254 | 10.0 | 10.0 | 0.00 | 0.00 | 0.00 | 83 | 1022.0 |
| 20260903005508 | 59 | 249 | 13.0 | 13.0 | 0.00 | 0.00 | 0.00 | 83 | 1022.1 |
| 20260903005007 | 59 | 257 | 11.0 | 11.0 | 0.00 | 0.00 | 0.00 | 82 | 1022.3 |
| 20260903004508 | 60 | 250 | 10.0 | 12.0 | 0.00 | 0.00 | 0.00 | 82 | 1022.2 |
| 20260903004007 | 59 | 245 | 13.0 | 13.0 | 0.00 | 0.00 | 0.00 | 84 | 1021.9 |
| 20260903003508 | 59 | 249 | 10.0 | 13.0 | 0.00 | 0.00 | 0.00 | 82 | 1022.0 |
| 20260903003008 | 60 | 248 | 12.0 | 12.0 | 0.00 | 0.00 | 0.00 | 81 | 1022.2 |
| 20260903002508 | 59 | 244 | 12.0 | 12.0 | 0.00 | 0.00 | 0.00 | 83 | 1022.1 |
| 20260903002007 | 60 | 252 | 12.0 | 12.0 | 0.00 | 0.00 | 0.00 | 81 | 1022.0 |
| 20260903001508 | 60 | 252 | 11.0 | 14.0 | 0.00 | 0.00 | 0.00 | 80 | 1022.3 |
| 20260903001007 | 60 | 250 | 9.0 | 10.0 | 0.00 | 0.00 | 0.00 | 79 | 1022.1 |
| 20260903000507 | 59 | 246 | 9.0 | 10.0 | 0.00 | 0.00 | 0.00 | 81 | 1022.0 |
| 20260903000008 | 59 | 253 | 11.0 | 11.0 | 0.00 | 0.00 | 0.00 | 81 | 1022.3 |
| 20260902235507 | 60 | 254 | 8.0 | 8.0 | 0.00 | 0.00 | 0.00 | 80 | 1022.0 |
| 20260902235008 | 60 | 252 | 8.0 | 9.0 | 0.00 | 0.00 | 0.00 | 79 | 1022.2 |
| 20260902234508 | 60 | 257 | 11.0 | 12.0 | 0.00 | 0.00 | 0.00 | 79 | 1022.0 |
| 20260902234007 | 60 | 252 | 9.0 | 10.0 | 0.00 | 0.00 | 0.00 | 78 | 1022.1 |
| 20260902233507 | 60 | 251 | 9.0 | 11.0 | 0.00 | 0.00 | 0.00 | 78 | 1022.3 |
| 20260902233008 | 60 | 260 | 10.0 | 10.0 | 0.00 | 0.00 | 0.00 | 78 | 1022.1 |
| 20260902232507 | 61 | 253 | 10.0 | 10.0 | 0.00 | 0.00 | 0.00 | 77 | 1022.1 |
| 20260902232007 | 60 | 248 | 8.0 | 9.0 | 0.00 | 0.00 | 0.00 | 77 | 1022.2 |
| 20260902231508 | 60 | 248 | 12.0 | 12.0 | 0.00 | 0.00 | 0.00 | 78 | 1022.3 |
| 20260902231008 | 60 | 247 | 11.0 | 12.0 | 0.00 | 0.00 | 0.00 | 77 | 1022.2 |
| 20260902230508 | 60 | 254 | 9.0 | 11.0 | 0.00 | 0.00 | 0.00 | 78 | 1022.1 |
| 20260902230008 | 60 | 250 | 10.0 | 10.0 | 0.00 | 0.00 | 0.00 | 77 | 1022.2 |
| 20260902225509 | 61 | 252 | 9.0 | 10.0 | 0.00 | 0.00 | 0.00 | 75 | 1022.4 |
| 20260902225008 | 61 | 251 | 11.0 | 11.0 | 0.00 | 0.00 | 0.00 | 74 | 1022.1 |
| 20260902224508 | 62 | 245 | 9.0 | 10.0 | 0.00 | 0.00 | 0.00 | 74 | 1022.3 |
| 20260902224007 | 62 | 240 | 9.0 | 10.0 | 0.00 | 0.00 | 0.00 | 73 | 1022.1 |
| 20260902223508 | 62 | 245 | 9.0 | 10.0 | 0.00 | 0.00 | 0.00 | 72 | 1022.2 |
| 20260902223007 | 63 | 231 | 9.0 | 10.0 | 0.00 | 0.00 | 0.00 | 71 | 1022.5 |
| 20260902222508 | 62 | 237 | 10.0 | 11.0 | 0.00 | 0.00 | 0.00 | 70 | 1022.2 |
| 20260902222007 | 62 | 247 | 10.0 | 10.0 | 0.00 | 0.00 | 0.00 | 70 | 1022.2 |
| 20260902221508 | 63 | 241 | 11.0 | 11.0 | 0.00 | 0.00 | 0.00 | 69 | 1022.2 |
| 20260902221007 | 63 | 249 | 8.0 | 9.0 | 0.00 | 0.00 | 0.00 | 68 | 1022.2 |
| 20260902220508 | 62 | 246 | 8.0 | 9.0 | 0.00 | 0.00 | 0.00 | 69 | 1022.4 |
| 20260902220009 | 62 | 243 | 9.0 | 10.0 | 0.00 | 0.00 | 0.00 | 69 | 1022.2 |
| 20260902215508 | 63 | 239 | 10.0 | 11.0 | 0.00 | 0.00 | 0.00 | 68 | 1022.2 |
| 20260902215008 | 63 | 239 | 9.0 | 10.0 | 0.00 | 0.00 | 0.00 | 67 | 1022.1 |
| 20260902214506 | 63 | 234 | 10.0 | 10.0 | 0.00 | 0.00 | 0.00 | 66 | 1022.2 |
| 20260902214008 | 63 | 230 | 9.0 | 9.0 | 0.00 | 0.00 | 0.00 | 66 | 1022.3 |
| 20260902213507 | 63 | 243 | 9.0 | 9.0 | 0.00 | 0.00 | 0.00 | 67 | 1022.3 |